Voltar ao catálogo

GUANGCHUAN 01

AtivoComunicaçõesVLEO
NORAD 62111·PAYLOAD·🇨🇳 China

Lançado Nov 27, 2024 de Jiuquan Satellite Launch Center

Loading…

Próximas Passagens (próximas 24 horas)

TLE

AtualizadoSource: Space-Track

Época: Sep 14, 2026, 13:19 UTC

1 62111U 24221A   26257.55491064  .00002094  00000-0  12895-3 0  9991
2 62111  49.9433  86.9645 0007077 299.4233  60.6011 15.14338042 99739

Acompanhe GUANGCHUAN 01 em tempo real com AllMySat

Download on the App Store